Погода Молчаново

Погода Молчаново : погода сейчас, прогноз погоды и архив. Всё, что Вы хотите узнать о погоде Молчаново!

Поиск расширенной информации на нашем сайте:

Другие новости

Новости СМИ2

Главная страница сайта

Новости сайта

03.07.2017

Напоминаем, что на нашем специализированном сайте Метеоцентр.Азия вы можете получить высокодетализированные автоматические прогнозы погоды по пунктам России, СНГ и мира в авиационном формате (включающие направление и скорость ветра, видимость, явления погоды, количество и форму облачности, нижнюю и верхнюю границу облачности).


Погода Молчаново - сегодня

Время (UTC), дата Ветер
(°,м/с) 
Видим.   Явления Облачность Т
(°С)
Тd
(°С)
f(%) Тe
(°С)
Pmin
(гПа)
dP
(гПа)
Po
(мм)
O2
(г/м3)
Тmin Tmax R s Состояние
почвы
00 12.12.17 220 (ЮЗ) 2000 м  дымка  10/0 средняя, верхняя 
[Ac trans|Ci fib]
-16.1 -17.7 87 -16  1030.1  0.7  761  327  -16.1      19  равномерный
сухой снег
100% 
03 12.12.17 270 (З) 2000 м  дымка  10/0 верхняя 
[Ci fib]
-15.8 -17.5 87 -16  1031.1  762  327  -16.2         
06 12.12.17 290 (З) 20000 м    10/10 300 м 
[St]
-15.5 -17.2 87 -16  1031.7  0.6  762  327           
09 12.12.17 240 (ЮЗ) 20000 м    10/0 верхняя 
[Ci fib]
-15.4 -17.1 87 -15  1032.4  0.7  763  327           
12 12.12.17 240 (ЮЗ) 20000 м    10/0 средняя 
[Ac As]
-15.7 -17.4 87 -18  1033.6  1.2  764  328    -15       
15 12.12.17 240 (ЮЗ) 4000 м  слаб. снег  10/0 средняя 
[As op]
-14.8 -16.5 87 -17  1034.5  0.9  764  327           
18 12.12.17 260 (З) 4000 м  слаб. снег  10/0 средняя 
[As op]
-14.3 -15.8 88 -16  1035.8  1.3  765  327           
21 12.12.17 250 (З) 4000 м  слаб. снег  10/0 средняя 
[As op]
-14.3 -15.9 88 -16  1036.7  0.9  766  327           
00 13.12.17 240 (ЮЗ) 20000 м  {снег}  ясно 
-16.6 -18.4 86 -19  1038.1  1.2  767  331  -16.6    0.9  19  равномерный
сухой снег
100% 
03 13.12.17 240 (ЮЗ) 20000 м    3/0 верхняя 
[Ci fib]
-18 -19.9 85 -21  1039.8  1.6  768  333  -18         
06 13.12.17 230 (ЮЗ) 20000 м    3/0 верхняя 
[Ci fib]
-16.4 -18.2 86 -19  1040.1  0.4  768  331           
09 13.12.17 220 (ЮЗ) 20000 м    10/0 верхняя 
[Ci fib]
-15.8 -17.5 87 -18  1040.7  0.6  769  330           
12 13.12.17 230 (ЮЗ) 20000 м    3/0 верхняя 
[Ci fib]
-16.7 -18.5 86 -21  1041.7  770  332    -15.8       
15 13.12.17 230 (ЮЗ) 4000 м  слаб. снег  10/0 верхняя 
[Cs]
-17.7 -19.6 85 -22  1042.9  1.1  770  334           
18 13.12.17 230 (ЮЗ) 4000 м  слаб. снег  10/0 верхняя 
[Cs]
-18.6 -20.6 84 -21  1043.5  0.6  771  335           
21 13.12.17 220 (ЮЗ) 20000 м  {снег}  10/0 верхняя 
[Cs]
-20 -22.2 83 -23  1044.2  0.5  771  337           
00 14.12.17 230 (ЮЗ) 20000 м  {снег}  10/0 верхняя 
[Ci fib]
-20.4 -22.6 82 -25  1045  0.8  772  338  -20.6    0.2  20  равномерный
сухой снег
100% 
03 14.12.17 220 (ЮЗ) 20000 м    10/0 средняя, верхняя 
[Ac trans|Ci fib]
-20.5 -22.7 83 -25  1046  773  338  -20.7         
06 14.12.17 220 (ЮЗ) 20000 м    10/0 средняя, верхняя 
[Ac trans|Ci fib]
-19.2 -21.4 83 -22  1046.8  0.8  773  337           
09 14.12.17 210 (ЮЗ) 20000 м    6/0 средняя, верхняя 
[Ac trans|Ci fib]
-17.7 -19.7 84 -22  1046.8  0.2  773  335           
12 14.12.17 210 (ЮЗ) 20000 м    8/0 верхняя 
[Ci fib]
-17.7 -19.6 85 -23  1047.8  0.9  774  335    -17.6       
15 14.12.17 210 (ЮЗ) 20000 м    3/0 верхняя 
[Ci fib]
-18 -20 84 -24  1047.6  -0.2  774  335           
18 14.12.17 220 (ЮЗ) 20000 м    ясно 
-19 -21.1 83 -24  1047.4  -0.3  774  337           
21 14.12.17 220 (ЮЗ) 20000 м    ясно 
-19.1 -21.2 83 -24  1046.5  -0.9  773  337           
00 15.12.17 210 (ЮЗ) 20000 м    4/0 верхняя 
[Ci fib]
-18.3 -20.3 84 -24  1045.4  -1  772  335  -19.2      20  равномерный
сухой снег
100% 
Время (UTC), дата Ветер
(°,м/с) 
Видим.   Явления Облачность Т
(°С)
Тd
(°С)
f(%) Тe
(°С)
Pmin
(гПа)
dP
(гПа)
Po
(мм)
O2
(г/м3)
Тmin Tmax R s Состояние
почвы

Для получения пояснительной информации подведите курсор к названию столбца.

ПОГОДА Молчаново - архив

Всё, что Вы хотите узнать о погоде Молчаново - удобно и подробно!

Выберите нужную дату (начиная с 1 января 2015* года) и нажмите кнопку "Найти".
Будут отображены архивные сводки погоды по пункту Молчаново, начиная с указанной даты.


Отображать данные в формате CSV (для использования в таблицах Excel)


Внимание! Наш архив погоды предназначен исключительно для личного некоммерческого использования в познавательных целях. Если Вам необходимы официальные справки о состоянии погоды (для производственных, юридических, коммерческих и т.п. целей), обращайтесь в органы Росгидромета.

*Примечание: данная дата относится к архиву по метеостанциям СССР (Россия, СНГ, Балтия).
Архив по метеостанциям Зарубежной Европы и Азии (кроме Китая) хранится 10 дней, по другим регионам земного шара (Китай, Африка, Америка, Австралия, Океания) - 1 день.

Молчаново - район местоположения метеостанции


Название, широта, долгота, высота метеостанции:
Молчаново 57.6°ш. 83.8°д. 114 м над ур. моря [Российская Федерация]

Дополнительная информация

В oтличие oт бoльшинства пoгoдных сайтoв мы публикуем пoдрoбную метеoинфoрмацию в детальнoм прoфессиoнальнoм фoрмате.

Характеристики температуры и влажнoсти вoздуха измеряются на высoте 2 м в тени вдали oт зданий и деревьев.
Скoрoсть ветра измеряется на высoте 10 м (на урoвне рoста челoвека скoрoсть ветра ниже в 1.5-2 раза). Если метеoстанция нахoдится в гoрoде или в лесу, тo скoрoсть ветра занижена на 2-4 м/с пo сравнению с oткрытым местoм. Скoрoсть ветра над акватoриями крупных рек и oзёр, а также на вершинах хoлмoв на 2-5 м/с выше, чем в oбычных услoвиях.
Атмoсфернoе давление в разных тoчках местнoсти мoжет значительнo oтличаться oт давления на метеoстанции, в зависимoсти oт услoвий рельефа (при пoдъёме на 10 м давление пoнижается примернo на 1 мм рт.ст.).